Location: Elaine Barite Prospect
(34.1431°N, 106.7922°W)
Time: 06:20:48
(UTC+00:00)

Cosmos 836 Rocket - Pass Details

Date: 13 December 2025
Orbit: 752 x 774 km, 74.1° (Epoch: 12 January)

Event Time Altitude Azimuth Distance (km) Brightness Sun altitude
Rises 13:24:58 0° 202° (SSW) 3,186 7.7 -8.2°
Reaches altitude 10° 13:27:20 10° 204° (SSW) 2,266 6.9 -7.8°
Maximum altitude 13:32:26 69° 288° (WNW) 805 4.4 -6.8°
Drops below altitude 10° 13:37:36 10° 12° (NNE) 2,286 6.8 -5.8°
Sets 13:40:00 0° 15° (NNE) 3,217 7.6 -5.4°
